TimeCET,TemperatureF,Dew PointF,Humidity,Sea Level PressureIn,VisibilityMPH,Wind Direction,Wind SpeedMPH,Gust SpeedMPH,PrecipitationIn,Events,Conditions,WindDirDegrees,DateUTC
12:00 AM,55.4,28.4,36,29.95,6.2,WNW,27.6,40.3,N/A,,Partly Cloudy,300,2013-02-06 23:00:00
12:30 AM,53.6,26.6,35,29.98,6.2,WNW,28.8,43.7,N/A,,Partly Cloudy,300,2013-02-06 23:30:00
1:00 AM,53,25,21,29.98,19,NW,26.5,,,,,310,2013-02-07 00:00:00
1:00 AM,53.6,28.4,38,29.98,6.2,NW,25.3,44.9,N/A,,Partly Cloudy,310,2013-02-07 00:00:00
1:30 AM,51.8,26.6,38,29.98,6.2,NW,28.8,42.6,N/A,,Partly Cloudy,310,2013-02-07 00:30:00
2:00 AM,51.8,24.8,35,29.98,6.2,WNW,27.6,-,N/A,,Partly Cloudy,300,2013-02-07 01:00:00
2:30 AM,51.8,23.0,33,29.98,-9999.0,WNW,29.9,43.7,N/A,,Clear,300,2013-02-07 01:30:00
3:00 AM,50.0,23.0,35,29.98,-9999.0,WNW,26.5,42.6,N/A,,Clear,300,2013-02-07 02:00:00
3:30 AM,50.0,24.8,37,29.98,-9999.0,WNW,29.9,41.4,N/A,,Clear,300,2013-02-07 02:30:00
4:00 AM,50.0,24.8,37,30.01,-9999.0,WNW,24.2,39.1,N/A,,Clear,300,2013-02-07 03:00:00
4:30 AM,48.2,26.6,43,30.01,-9999.0,WNW,28.8,41.4,N/A,,Clear,300,2013-02-07 03:30:00
5:00 AM,48.2,24.8,40,30.04,-9999.0,WNW,26.5,-,N/A,,Clear,300,2013-02-07 04:00:00
5:30 AM,48.2,24.8,40,30.04,-9999.0,WNW,23.0,35.7,N/A,,Clear,300,2013-02-07 04:30:00
6:00 AM,48.2,24.8,40,30.06,-9999.0,WNW,19.6,31.1,N/A,,Clear,290,2013-02-07 05:00:00
6:30 AM,46.4,26.6,46,30.09,-9999.0,West,17.3,29.9,N/A,,Clear,280,2013-02-07 05:30:00
7:00 AM,47,23,26,30.10,19,WNW,25.3,,,,,290,2013-02-07 06:00:00
7:00 AM,46.4,24.8,43,30.09,-9999.0,WNW,24.2,39.1,N/A,,Clear,290,2013-02-07 06:00:00
7:30 AM,46.4,24.8,43,30.09,-9999.0,WNW,23.0,-,N/A,,Clear,290,2013-02-07 06:30:00
8:00 AM,46.4,24.8,43,30.09,-9999.0,WNW,25.3,36.8,N/A,,Clear,290,2013-02-07 07:00:00
8:30 AM,46.4,24.8,43,30.12,6.2,WSW,9.2,-,N/A,,Partly Cloudy,250,2013-02-07 07:30:00
9:00 AM,48.2,24.8,40,30.12,6.2,SW,12.7,-,N/A,,Partly Cloudy,230,2013-02-07 08:00:00
9:30 AM,50.0,24.8,37,30.15,6.2,West,10.4,-,N/A,,Partly Cloudy,270,2013-02-07 08:30:00
10:00 AM,51.8,24.8,35,30.15,6.2,Variable,3.5,-,N/A,,Partly Cloudy,0,2013-02-07 09:00:00
10:30 AM,51.8,23.0,33,30.15,6.2,WNW,18.4,31.1,N/A,,Partly Cloudy,300,2013-02-07 09:30:00
11:00 AM,53.6,24.8,33,30.18,6.2,WNW,16.1,31.1,N/A,,Partly Cloudy,290,2013-02-07 10:00:00
11:30 AM,53.6,23.0,30,30.18,6.2,WNW,20.7,36.8,N/A,,Partly Cloudy,300,2013-02-07 10:30:00
12:00 PM,53.6,23.0,30,30.18,6.2,NW,19.6,34.5,N/A,,Partly Cloudy,310,2013-02-07 11:00:00
12:30 PM,55.4,23.0,29,30.18,6.2,WNW,15.0,-,N/A,,Partly Cloudy,300,2013-02-07 11:30:00
1:00 PM,56,20,14,30.20,12,WNW,17.3,,,,Scattered Clouds,300,2013-02-07 12:00:00
1:00 PM,57.2,23.0,27,30.18,6.2,WNW,16.1,27.6,N/A,,Partly Cloudy,300,2013-02-07 12:00:00
1:30 PM,57.2,21.2,25,30.18,6.2,NW,16.1,32.2,N/A,,Partly Cloudy,320,2013-02-07 12:30:00
2:00 PM,59.0,23.0,25,30.18,6.2,WNW,16.1,27.6,N/A,,Partly Cloudy,300,2013-02-07 13:00:00
2:30 PM,59.0,23.0,25,30.15,6.2,NW,19.6,-,N/A,,Partly Cloudy,310,2013-02-07 13:30:00
3:00 PM,60.8,23.0,23,30.15,6.2,NW,11.5,-,N/A,,Scattered Clouds,320,2013-02-07 14:00:00
3:30 PM,59.0,21.2,23,30.15,6.2,WNW,20.7,32.2,N/A,,Scattered Clouds,300,2013-02-07 14:30:00
4:00 PM,60.8,19.4,20,30.15,6.2,WNW,17.3,-,N/A,,Scattered Clouds,300,2013-02-07 15:00:00
4:30 PM,59.0,19.4,22,30.15,6.2,WNW,17.3,31.1,N/A,,Scattered Clouds,300,2013-02-07 15:30:00
5:00 PM,59.0,21.2,23,30.15,6.2,WNW,17.3,-,N/A,,Scattered Clouds,290,2013-02-07 16:00:00
5:30 PM,59.0,17.6,20,30.15,6.2,WNW,15.0,-,N/A,,Scattered Clouds,300,2013-02-07 16:30:00
6:00 PM,57.2,19.4,23,30.15,-9999.0,WNW,13.8,-,N/A,,Clear,290,2013-02-07 17:00:00
6:30 PM,57.2,19.4,23,30.15,-9999.0,WNW,13.8,-,N/A,,Clear,290,2013-02-07 17:30:00
7:00 PM,53,18,14,30.17,12,West,9.2,,,,,280,2013-02-07 18:00:00
7:00 PM,53.6,21.2,28,30.15,-9999.0,West,8.1,-,N/A,,Clear,280,2013-02-07 18:00:00
7:30 PM,51.8,21.2,30,30.15,-9999.0,West,6.9,-,N/A,,Clear,270,2013-02-07 18:30:00
8:00 PM,48.2,23.0,37,30.15,-9999.0,West,8.1,-,N/A,,Clear,280,2013-02-07 19:00:00
8:30 PM,48.2,23.0,37,30.18,-9999.0,West,6.9,-,N/A,,Clear,270,2013-02-07 19:30:00
9:00 PM,46.4,23.0,40,30.18,-9999.0,West,9.2,-,N/A,,Clear,280,2013-02-07 20:00:00
9:30 PM,50.0,23.0,35,30.18,-9999.0,West,8.1,-,N/A,,Clear,280,2013-02-07 20:30:00
10:00 PM,51.8,23.0,33,30.18,-9999.0,WNW,11.5,-,N/A,,Clear,290,2013-02-07 21:00:00
10:30 PM,50.0,23.0,35,30.18,-9999.0,WNW,12.7,-,N/A,,Clear,290,2013-02-07 21:30:00
11:00 PM,51.8,23.0,33,30.18,-9999.0,WNW,11.5,-,N/A,,Clear,300,2013-02-07 22:00:00
11:30 PM,51.8,23.0,33,30.15,-9999.0,WNW,12.7,-,N/A,,Clear,290,2013-02-07 22:30:00